User: anonymous   Login
Location: *
(51.5000°N, 0.1100°W)
Time: 23:54:55
(UTC+00:00)
Language:

RESURS DK-1 - Orbit

View from above orbital plane
View from above orbital plane
View from above satellite
View from above satellite

Ground track
Ground track

The orbit data is extracted from the following two-line orbital elements,

1 29228U 06021A   24194.56858471  .00003486  00000-0  23587-3 0  9995
2 29228  69.9360 356.6439 0006055 306.6139  53.4467 15.07480787996143
Epoch (UTC): 12 July 2024 13:38:45
Eccentricity: 0.0006055
inclination: 69.9360°
perigee height: 540 km
apogee height: 548 km
right ascension of ascending node: 356.6439°
argument of perigee: 306.6139°
revolutions per day: 15.07480787
mean anomaly at epoch: 53.4467°
orbit number at epoch: 99614

The dashed part of the orbit path shows where the satellite is in the earth's shadow,  

DLR